CW2840 Weather Reports


time (UTC)temp
F
wind
direction
speed
knots
gust
knots
rain 1hr
in
rain 24hr
in
rain mn
in
humidity
%
barometer
mb
20260510201746 89 103 4.3 7.8 0.00 0.01 0.00 58 1012.9
20260510200246 90 71 3.5 7.8 0.00 0.01 0.00 59 1012.7
20260510195442 91 116 4.3 9.6 0.00 0.01 0.00 57 1012.7
20260510193936 89 96 3.5 9.6 0.00 0.01 0.00 59 1012.8
20260510191745 90 135 2.6 7.8 0.00 0.01 0.00 57 1012.7
20260510190945 91 190 3.5 9.6 0.00 0.01 0.00 58 1012.7
20260510184744 90 171 4.3 11.3 0.00 0.01 0.00 56 1012.7
20260510183244 90 189 4.3 11.3 0.00 0.01 0.00 57 1012.9
20260510181743 88 131 1.7 9.6 0.00 0.01 0.00 57 1013.0
20260510180243 88 113 2.6 9.6 0.00 0.01 0.00 60 1013.0
20260510174743 88 171 3.5 9.6 0.00 0.01 0.00 59 1013.4
20260510173243 87 169 2.6 7.8 0.00 0.01 0.00 62 1013.5
20260510171742 87 110 2.6 9.6 0.00 0.01 0.00 66 1013.7
20260510170242 86 188 2.6 9.6 0.00 0.01 0.00 65 1013.9
20260510164742 85 165 3.5 9.6 0.00 0.01 0.00 68 1014.0
20260510163241 84 134 2.6 6.1 0.00 0.01 0.00 71 1014.4
20260510162442 83 128 1.7 6.1 0.00 0.01 0.00 74 1014.6
20260510160241 82 93 2.6 6.1 0.00 0.01 0.00 76 1014.8
20260510154740 82 118 2.6 4.3 0.00 0.01 0.00 75 1014.8
20260510153240 82 144 1.7 6.1 0.00 0.01 0.00 76 1014.8
20260510151741 81 131 2.6 6.1 0.00 0.01 0.00 77 1014.8
20260510150239 80 117 4.3 7.8 0.00 0.01 0.00 77 1014.8
20260510150150 79 344 2.6 11.3 0.00 0.01 0.00 81 1015.0
20260510143238 78 0 1.7 7.8 0.00 0.01 0.00 85 1015.1
20260510141741 76 54 1.7 4.3 0.00 0.01 0.00 88 1015.0
20260510140240 76 0 1.7 7.8 0.00 0.01 0.00 89 1015.1
20260510134737 75 357 0.0 4.3 0.00 0.01 0.00 90 1015.1
20260510133240 74 358 4.3 7.8 0.00 0.01 0.00 90 1014.9
20260510132424 74 48 0.9 6.1 0.00 0.01 0.00 90 1014.7
20260510130238 74 92 0.0 1.7 0.00 0.01 0.00 91 1014.4
20260510124737 73 92 0.0 2.6 0.00 0.01 0.00 91 1013.9
20260510123935 73 90 0.0 1.7 0.00 0.01 0.00 91 1013.7
20260510121735 72 90 0.0 1.7 0.00 0.01 0.00 91 1013.5
20260510120238 72 90 0.0 1.7 0.00 0.01 0.00 91 1013.2
20260510114737 72 90 0.0 2.6 0.00 0.01 0.00 91 1013.0
20260510113236 71 90 0.9 4.3 0.00 0.01 0.00 91 1012.8
20260510112432 71 94 1.7 4.3 0.00 0.01 0.00 91 1012.3
20260510110235 71 94 0.0 2.6 0.00 0.01 0.00 91 1011.7
20260510104732 71 94 0.0 1.7 0.00 0.01 0.00 91 1011.6
20260510103929 71 94 0.0 1.7 0.00 0.01 0.00 90 1011.4
20260510101732 71 94 0.0 2.6 0.00 0.01 0.00 90 1011.3
20260510100235 70 94 0.9 2.6 0.00 0.01 0.00 90 1011.2
20260510094732 69 94 0.0 1.7 0.00 0.01 0.00 90 1011.1
20260510093233 69 94 0.0 0.0 0.00 0.01 0.00 90 1011.0
20260510092422 70 94 0.0 1.7 0.00 0.01 0.00 90 1010.9
20260510090234 70 94 0.9 1.7 0.00 0.01 0.00 90 1010.8
20260510084731 69 94 0.0 1.7 0.00 0.01 0.00 90 1010.7
20260510083232 70 94 0.0 1.7 0.00 0.01 0.00 90 1010.9
20260510081731 70 94 0.0 1.7 0.00 0.01 0.00 90 1011.1
20260510080232 70 94 0.0 1.7 0.00 0.01 0.00 90 1011.2
20260510074730 71 94 0.0 1.7 0.00 0.01 0.00 90 1010.9
20260510073921 70 94 0.0 1.7 0.00 0.01 0.00 90 1010.9
20260510071729 70 94 0.0 1.7 0.00 0.01 0.00 89 1010.9
20260510070231 70 94 0.0 1.7 0.00 0.01 0.00 89 1011.1
20260510064729 70 94 0.9 1.7 0.00 0.01 0.00 89 1011.3
20260510063229 70 94 0.0 1.7 0.00 0.01 0.00 89 1011.2
20260510062428 71 94 0.0 0.0 0.00 0.01 0.00 89 1011.2
20260510060229 71 94 0.0 0.0 0.00 0.01 0.00 89 1011.4
20260510054727 71 94 0.0 1.7 0.00 0.01 0.00 89 1011.5
20260510053927 71 94 0.0 1.7 0.00 0.01 0.00 88 1011.4
20260510051726 71 94 0.0 1.7 0.00 0.01 0.00 88 1011.4
20260510050229 71 94 0.9 2.6 0.00 0.01 0.00 88 1011.5
20260510045426 71 94 0.0 1.7 0.00 0.01 0.01 87 1011.5
20260510043925 71 94 0.9 1.7 0.00 0.01 0.01 87 1011.6
20260510041727 71 94 0.0 1.7 0.00 0.01 0.01 86 1011.9
20260510040226 71 94 0.0 2.6 0.00 0.01 0.01 86 1011.8
20260510034724 71 94 1.7 2.6 0.01 0.00 0.01 85 1011.6
20260510033226 72 94 1.7 4.3 0.01 0.00 0.01 84 1011.7
20260510031725 72 94 1.7 6.1 0.01 0.00 0.01 83 1011.8
20260510030226 73 212 0.0 7.8 0.01 0.00 0.00 80 1012.0
20260510024724 75 111 3.5 15.6 0.00 0.00 0.00 73 1012.0
20260510023225 76 109 6.1 15.6 0.00 0.00 0.00 71 1011.4
20260510021723 80 103 8.7 13.9 0.00 0.00 0.00 70 1010.8
20260510020224 81 138 4.3 6.1 0.00 0.00 0.00 67 1010.0
20260510014722 81 188 1.7 4.3 0.00 0.00 0.00 66 1009.3
20260510014621 83 223 2.6 9.6 0.00 0.00 0.00 66 1009.3
20260510011722 84 127 0.9 2.6 0.00 0.00 0.00 68 1008.9
20260510010923 85 127 0.9 2.6 0.00 0.00 0.00 67 1008.6
20260510005426 85 127 0.9 1.7 0.00 0.00 0.00 68 1008.5
20260510003222 85 127 0.0 1.7 0.00 0.00 0.00 69 1008.3
20260510001720 85 127 0.0 1.7 0.00 0.00 0.00 69 1008.1
20260510000222 85 127 0.9 2.6 0.00 0.00 0.00 68 1008.0
20260509235415 85 127 0.0 1.7 0.00 0.00 0.00 67 1008.0
20260509233915 85 127 0.0 1.7 0.00 0.00 0.00 67 1008.1
20260509231719 86 127 0.0 4.3 0.00 0.00 0.00 65 1008.0
20260509230221 86 127 0.0 1.7 0.00 0.00 0.00 65 1007.8
20260509224718 87 127 0.0 2.6 0.00 0.00 0.00 63 1007.8
20260509223220 88 127 2.6 6.1 0.00 0.00 0.00 62 1007.9
20260509221718 89 128 3.5 6.1 0.00 0.00 0.00 61 1007.5
20260509220219 88 131 1.7 4.3 0.00 0.00 0.00 62 1007.5
20260509214717 88 131 2.6 4.3 0.00 0.00 0.00 63 1007.5
20260509213218 87 133 0.9 4.3 0.00 0.00 0.00 62 1007.7
20260509211716 88 135 1.7 6.1 0.00 0.00 0.00 63 1007.7
20260509210217 88 142 2.6 4.3 0.00 0.00 0.00 62 1007.9
20260509204715 86 157 0.0 6.1 0.00 0.00 0.00 64 1008.2
20260509203218 87 195 0.9 4.3 0.00 0.00 0.00 65 1008.2